User: anonymous   Login
Location: B�di�
(14.6834°N, 3.1047°W)
Time: 15:55:08
(UTC+00:00)
Language:

H-2A R/B - Orbit

View from above orbital plane
View from above orbital plane
View from above satellite
View from above satellite

Ground track
Ground track

The orbit data is extracted from the following two-line orbital elements,

1 28938U 06004B   20094.54358562 +.00001046 +00000-0 +52013-3 0  9998
2 28938 028.3338 238.4429 6836567 153.8220 269.1130 02.83759455133202
Epoch (UTC): 03 April 2020 13:02:45
Eccentricity: 0.6836567
inclination: 28.3338°
perigee height: 289 km
apogee height: 29105 km
right ascension of ascending node: 238.4429°
argument of perigee: 153.8220°
revolutions per day: 2.83759455
mean anomaly at epoch: 269.1130°
orbit number at epoch: 13320

The dashed part of the orbit path shows where the satellite is in the earth's shadow,  

DLR